Lid_Strength_Index
7 6 6 6 6 6 7 7 8 7 7 7 8 9 9 9 9 9 11 11 11 10 9 9 8 6 6 7 6 7 8 9 10 2 1 2 4 1 0 1 2 1 2
7 6 6 6 6 7 7 8 7 7 7 8 9 9 9 10 10 10 11 11 11 10 9 9 8 7 7 6 7 7 7 7 7 4 3 5 2 1 2 2 2 1 1
7 6 6 7 7 7 8 7 7 7 8 9 9 9 10 10 11 11 12 12 12 11 10 10 9 8 8 7 7 7 6 7 8 6 4 2 2 1 2 2 2 1 1
7 7 7 7 7 7 8 7 7 7 9 9 9 10 10 11 12 12 12 11 11 10 10 10 10 9 9 8 7 7 8 6 4 3 3 3 3 2 2 3 3 2 3
7 7 7 7 7 8 7 7 7 8 9 9 9 10 10 12 12 13 12 12 11 12 11 10 10 8 8 9 11 10 5 4 3 4 4 4 4 4 3 3 4 3 3
7 7 7 7 8 8 8 7 8 9 9 10 10 10 10 12 13 13 13 13 13 13 14 13 12 11 10 10 11 12 12 6 7 5 6 8 11 7 4 3 4 4 5
7 7 8 8 9 8 8 8 8 9 10 10 10 11 11 13 13 13 13 13 14 14 14 14 13 12 11 11 11 11 12 13 14 9 12 11 11 10 6 4 4 4 4
8 8 8 8 9 9 8 8 8 9 10 10 10 11 12 13 13 13 12 13 14 14 14 14 14 13 12 12 11 12 12 12 13 13 13 13 11 11 5 3 6 4 2
8 8 8 9 9 9 8 8 8 9 10 10 10 11 12 12 13 13 12 13 14 15 14 14 14 14 13 12 12 13 13 13 12 13 14 14 14 14 9 3 4 5 7
8 8 9 9 9 9 8 8 8 9 10 10 11 10 12 12 13 14 14 14 15 15 15 15 14 15 13 13 13 13 14 14 14 13 14 14 14 14 15 9 3 6 10
8 8 9 9 10 9 8 8 8 9 10 11 11 11 11 12 12 13 14 13 14 15 16 16 15 14 14 13 13 13 14 14 14 14 14 15 15 15 16 15 12 7 12
8 9 9 9 10 9 8 8 8 8 10 11 11 11 11 11 13 13 14 14 13 15 16 16 16 15 15 15 15 14 14 13 15 15 16 16 16 17 16 16 16 16 16
9 9 10 10 10 9 9 8 8 8 10 10 11 11 12 12 12 13 13 14 14 13 15 16 15 15 16 16 15 15 15 14 15 16 17 17 16 17 16 15 15 15 17
10 10 10 10 10 9 9 9 10 9 9 10 11 12 12 13 13 13 12 12 14 13 13 13 15 15 16 16 16 16 15 16 17 17 17 16 16 16 17 16 16 16 17
10 11 10 10 9 10 11 10 10 11 11 11 10 11 12 13 14 14 14 14 13 14 13 13 14 14 15 16 16 16 16 16 17 17 17 17 17 17 17 16 16 16 17
11 11 10 10 10 9 10 11 13 12 12 12 13 12 11 13 14 14 14 14 14 14 13 14 14 15 15 16 16 16 15 15 16 17 17 17 17 17 17 17 17 17 18
10 11 11 10 10 10 10 10 10 12 13 13 12 13 13 13 13 13 12 12 13 12 13 14 14 14 15 15 16 16 16 15 15 15 16 16 17 17 17 17 17 18 19
10 13 10 10 10 10 10 10 10 10 11 11 12 13 14 13 13 12 12 11 11 12 13 13 13 13 13 14 15 15 15 14 15 15 16 16 16 16 17 18 17 18 18
10 10 9 9 9 10 10 10 10 10 10 11 10 11 12 13 12 12 12 11 12 13 13 13 13 13 12 13 12 13 14 14 14 14 14 15 15 15 17 17 17 18 18
9 12 11 9 10 10 10 10 10 10 11 10 11 11 10 10 11 10 11 11 11 12 13 13 13 13 13 12 12 11 12 12 12 12 13 13 13 13 14 15 16 17 18
8 10 11 9 10 9 9 10 10 10 10 10 11 13 15 11 12 12 12 12 12 12 12 13 12 13 13 12 13 13 13 13 13 13 13 13 12 13 13 13 13 14 14
8 9 10 9 9 10 10 9 10 10 10 10 11 13 15 11 11 12 12 12 12 12 12 12 13 13 13 13 13 13 13 13 13 13 13 13 13 13 13 13 13 13 14
8 9 9 9 9 11 10 10 10 10 10 10 10 11 12 10 11 11 12 12 12 12 12 12 13 14 13 14 13 13 13 14 15 13 13 13 13 13 13 13 14 14 14
8 8 9 9 9 10 10 10 10 12 11 10 10 10 10 11 11 11 11 12 12 12 12 12 13 14 15 14 14 14 14 14 14 14 13 13 14 14 13 14 14 14 14
7 8 9 9 9 9 9 10 10 9 11 11 12 11 10 10 11 11 11 11 12 12 12 13 13 13 15 15 14 14 16 16 14 15 13 14 14 14 14 13 14 14 14
7 8 8 8 8 9 10 11 11 12 11 12 13 13 11 11 11 11 11 11 12 12 12 12 12 13 13 14 15 15 16 16 16 16 14 14 14 14 14 14 15 14 14